| time (UTC) | temp F | wind direction | speed MPH | gust MPH | rain 1hr in | rain 24hr in | rain mn in | humidity % | barometer mb |
| 20260510234401 | 51 | 85 | 0.0 | 0.0 | 0.00 | 0.21 | 0.14 | 94 | 1011.7 |
| 20260510233855 | 51 | 85 | 0.0 | 2.0 | 0.00 | 0.21 | 0.14 | 94 | 1011.8 |
| 20260510233349 | 51 | 85 | 0.0 | 2.0 | 0.00 | 0.21 | 0.14 | 93 | 1012.0 |
| 20260510232843 | 51 | 84 | 0.0 | 0.0 | 0.00 | 0.21 | 0.14 | 93 | 1012.0 |
| 20260510232338 | 51 | 84 | 0.0 | 3.0 | 0.00 | 0.22 | 0.14 | 93 | 1011.6 |
| 20260510231832 | 51 | 84 | 0.0 | 3.0 | 0.00 | 0.22 | 0.14 | 93 | 1011.5 |
| 20260510231325 | 51 | 83 | 0.0 | 3.0 | 0.00 | 0.22 | 0.14 | 93 | 1011.6 |
| 20260510231041 | 52 | 83 | 0.0 | 3.0 | 0.00 | 0.22 | 0.14 | 93 | 1011.3 |
| 20260510230313 | 52 | 83 | 0.0 | 3.0 | 0.00 | 0.22 | 0.14 | 93 | 1011.3 |
| 20260510225807 | 52 | 83 | 0.0 | 1.0 | 0.00 | 0.22 | 0.14 | 93 | 1011.3 |
| 20260510225302 | 52 | 83 | 0.0 | 1.0 | 0.00 | 0.23 | 0.14 | 92 | 1011.2 |
| 20260510224756 | 52 | 83 | 0.0 | 1.0 | 0.00 | 0.23 | 0.14 | 92 | 1011.2 |
| 20260510224249 | 52 | 82 | 0.0 | 0.0 | 0.00 | 0.23 | 0.14 | 92 | 1011.1 |
| 20260510223743 | 53 | 82 | 0.0 | 3.0 | 0.00 | 0.23 | 0.14 | 92 | 1010.8 |
| 20260510223239 | 53 | 82 | 1.0 | 4.0 | 0.00 | 0.23 | 0.14 | 91 | 1010.8 |
| 20260510222737 | 54 | 84 | 1.0 | 6.0 | 0.00 | 0.23 | 0.14 | 91 | 1010.8 |
| 20260510222237 | 54 | 98 | 1.0 | 6.0 | 0.00 | 0.24 | 0.14 | 91 | 1010.9 |
| 20260510221738 | 54 | 98 | 1.0 | 4.0 | 0.00 | 0.24 | 0.14 | 91 | 1010.9 |
| 20260510221236 | 54 | 98 | 1.0 | 4.0 | 0.00 | 0.24 | 0.14 | 91 | 1011.0 |
| 20260510220735 | 55 | 98 | 0.0 | 4.0 | 0.00 | 0.24 | 0.14 | 91 | 1010.9 |
| 20260510220235 | 55 | 98 | 0.0 | 2.0 | 0.00 | 0.24 | 0.14 | 91 | 1010.8 |
| 20260510215957 | 55 | 98 | 0.0 | 1.0 | 0.00 | 0.24 | 0.14 | 91 | 1010.9 |
| 20260510215236 | 55 | 98 | 0.0 | 2.0 | 0.00 | 0.24 | 0.14 | 91 | 1011.1 |
| 20260510214733 | 55 | 98 | 1.0 | 3.0 | 0.01 | 0.25 | 0.14 | 91 | 1010.9 |
| 20260510214231 | 55 | 98 | 0.0 | 3.0 | 0.01 | 0.25 | 0.14 | 90 | 1011.0 |
| 20260510213732 | 56 | 98 | 1.0 | 4.0 | 0.03 | 0.25 | 0.14 | 89 | 1011.1 |
| 20260510213232 | 57 | 98 | 1.0 | 4.0 | 0.05 | 0.25 | 0.14 | 89 | 1011.1 |
| 20260510212730 | 58 | 152 | 0.0 | 2.0 | 0.06 | 0.25 | 0.14 | 90 | 1011.0 |
| 20260510212227 | 59 | 152 | 0.0 | 2.0 | 0.07 | 0.25 | 0.14 | 91 | 1011.1 |
| 20260510211726 | 59 | 152 | 0.0 | 2.0 | 0.07 | 0.25 | 0.14 | 91 | 1011.0 |
| 20260510211226 | 59 | 152 | 1.0 | 3.0 | 0.07 | 0.25 | 0.14 | 92 | 1010.9 |
| 20260510210726 | 58 | 152 | 1.0 | 3.0 | 0.07 | 0.25 | 0.14 | 92 | 1010.8 |
| 20260510210704 | 58 | 152 | 1.0 | 7.0 | 0.07 | 0.25 | 0.14 | 92 | 1010.8 |
| 20260510205725 | 58 | 152 | 1.0 | 7.0 | 0.07 | 0.26 | 0.14 | 92 | 1010.8 |
| 20260510205220 | 57 | 202 | 0.0 | 3.0 | 0.07 | 0.26 | 0.14 | 93 | 1010.8 |
| 20260510204713 | 56 | 202 | 0.0 | 3.0 | 0.06 | 0.25 | 0.13 | 92 | 1010.8 |
| 20260510204207 | 56 | 203 | 0.0 | 3.0 | 0.06 | 0.25 | 0.13 | 92 | 1011.1 |
| 20260510203700 | 56 | 200 | 0.0 | 0.0 | 0.03 | 0.22 | 0.11 | 92 | 1011.2 |
| 20260510203156 | 56 | 200 | 0.0 | 4.0 | 0.02 | 0.22 | 0.09 | 91 | 1011.2 |
| 20260510202648 | 56 | 200 | 1.0 | 4.0 | 0.01 | 0.21 | 0.08 | 91 | 1011.4 |
| 20260510202144 | 56 | 277 | 1.0 | 8.0 | 0.00 | 0.20 | 0.07 | 91 | 1011.4 |
| 20260510201636 | 55 | 278 | 3.0 | 9.0 | 0.00 | 0.20 | 0.07 | 90 | 1011.6 |
| 20260510201132 | 55 | 300 | 4.0 | 9.0 | 0.00 | 0.20 | 0.07 | 88 | 1011.7 |
| 20260510200624 | 56 | 260 | 4.0 | 11.0 | 0.00 | 0.21 | 0.07 | 87 | 1010.7 |
| 20260510200343 | 57 | 175 | 3.0 | 11.0 | 0.00 | 0.21 | 0.07 | 87 | 1010.5 |
| 20260510195613 | 58 | 192 | 4.0 | 11.0 | 0.00 | 0.21 | 0.07 | 87 | 1010.4 |
| 20260510195107 | 58 | 173 | 5.0 | 13.0 | 0.00 | 0.22 | 0.07 | 87 | 1010.5 |
| 20260510194604 | 59 | 153 | 4.0 | 13.0 | 0.00 | 0.22 | 0.07 | 86 | 1010.6 |
| 20260510194105 | 59 | 184 | 5.0 | 12.0 | 0.00 | 0.22 | 0.07 | 87 | 1010.5 |
| 20260510193603 | 59 | 194 | 4.0 | 12.0 | 0.00 | 0.23 | 0.07 | 87 | 1010.5 |
| 20260510193104 | 58 | 215 | 4.0 | 11.0 | 0.00 | 0.23 | 0.07 | 88 | 1010.6 |
| 20260510192824 | 58 | 157 | 5.0 | 11.0 | 0.00 | 0.23 | 0.07 | 88 | 1010.6 |
| 20260510192101 | 58 | 178 | 6.0 | 14.0 | 0.00 | 0.24 | 0.07 | 88 | 1010.8 |
| 20260510191602 | 58 | 215 | 4.0 | 14.0 | 0.00 | 0.24 | 0.07 | 87 | 1010.8 |
| 20260510191101 | 58 | 146 | 3.0 | 11.0 | 0.00 | 0.25 | 0.07 | 87 | 1010.8 |
| 20260510190602 | 58 | 51 | 4.0 | 11.0 | 0.00 | 0.25 | 0.07 | 87 | 1010.7 |
| 20260510190544 | 58 | 146 | 4.0 | 9.0 | 0.00 | 0.26 | 0.07 | 88 | 1010.8 |
| 20260510185601 | 57 | 227 | 4.0 | 11.0 | 0.00 | 0.26 | 0.07 | 89 | 1010.8 |
| 20260510185059 | 56 | 154 | 5.0 | 11.0 | 0.00 | 0.27 | 0.07 | 89 | 1010.8 |
| 20260510184559 | 56 | 193 | 4.0 | 11.0 | 0.00 | 0.27 | 0.07 | 88 | 1010.9 |
| 20260510184059 | 56 | 155 | 5.0 | 10.0 | 0.00 | 0.28 | 0.07 | 88 | 1011.1 |
| 20260510183559 | 56 | 134 | 5.0 | 10.0 | 0.00 | 0.28 | 0.07 | 88 | 1011.2 |
| 20260510183100 | 56 | 232 | 5.0 | 12.0 | 0.00 | 0.29 | 0.07 | 87 | 1011.3 |
| 20260510182558 | 56 | 157 | 5.0 | 14.0 | 0.00 | 0.29 | 0.07 | 87 | 1011.4 |
| 20260510182317 | 56 | 224 | 5.0 | 14.0 | 0.00 | 0.30 | 0.07 | 88 | 1011.4 |
| 20260510181552 | 57 | 167 | 5.0 | 12.0 | 0.00 | 0.31 | 0.07 | 86 | 1011.4 |
| 20260510181045 | 58 | 176 | 4.0 | 10.0 | 0.00 | 0.31 | 0.07 | 87 | 1011.4 |
| 20260510180541 | 58 | 200 | 4.0 | 9.0 | 0.00 | 0.31 | 0.07 | 86 | 1011.6 |
| 20260510180039 | 58 | 205 | 4.0 | 11.0 | 0.00 | 0.32 | 0.07 | 86 | 1011.6 |
| 20260510175539 | 58 | 178 | 4.0 | 11.0 | 0.00 | 0.33 | 0.07 | 87 | 1011.6 |
| 20260510175039 | 58 | 133 | 5.0 | 12.0 | 0.00 | 0.33 | 0.07 | 87 | 1011.6 |
| 20260510174803 | 57 | 206 | 6.0 | 12.0 | 0.00 | 0.33 | 0.07 | 86 | 1011.6 |
| 20260510174040 | 57 | 153 | 5.0 | 12.0 | 0.00 | 0.34 | 0.07 | 86 | 1011.6 |
| 20260510173540 | 57 | 150 | 5.0 | 11.0 | 0.00 | 0.34 | 0.07 | 86 | 1011.6 |
| 20260510173040 | 57 | 138 | 5.0 | 11.0 | 0.00 | 0.35 | 0.07 | 85 | 1011.5 |
| 20260510172540 | 57 | 201 | 5.0 | 13.0 | 0.00 | 0.35 | 0.07 | 87 | 1011.6 |
| 20260510172039 | 57 | 172 | 4.0 | 13.0 | 0.00 | 0.35 | 0.07 | 85 | 1011.6 |
| 20260510171535 | 57 | 150 | 3.0 | 9.0 | 0.00 | 0.36 | 0.07 | 87 | 1011.7 |
| 20260510171255 | 57 | 153 | 3.0 | 8.0 | 0.00 | 0.36 | 0.07 | 88 | 1011.6 |
| 20260510170535 | 56 | 165 | 4.0 | 9.0 | 0.00 | 0.36 | 0.07 | 88 | 1011.6 |
| 20260510170035 | 56 | 192 | 5.0 | 13.0 | 0.00 | 0.36 | 0.07 | 86 | 1011.6 |
| 20260510165535 | 57 | 112 | 4.0 | 13.0 | 0.01 | 0.36 | 0.07 | 86 | 1011.6 |
| 20260510165036 | 57 | 179 | 4.0 | 11.0 | 0.01 | 0.36 | 0.07 | 87 | 1011.6 |
| 20260510164537 | 56 | 205 | 5.0 | 12.0 | 0.01 | 0.36 | 0.07 | 87 | 1011.6 |
| 20260510164035 | 56 | 155 | 5.0 | 12.0 | 0.01 | 0.36 | 0.07 | 86 | 1011.7 |
| 20260510163535 | 57 | 211 | 5.0 | 15.0 | 0.01 | 0.36 | 0.07 | 86 | 1011.7 |
| 20260510163031 | 57 | 167 | 5.0 | 15.0 | 0.01 | 0.36 | 0.07 | 86 | 1011.7 |
| 20260510162757 | 57 | 180 | 5.0 | 10.0 | 0.01 | 0.36 | 0.07 | 87 | 1011.8 |
| 20260510162032 | 57 | 142 | 4.0 | 10.0 | 0.01 | 0.36 | 0.07 | 87 | 1011.8 |
| 20260510161531 | 57 | 212 | 4.0 | 10.0 | 0.01 | 0.36 | 0.07 | 86 | 1011.8 |
| 20260510161031 | 58 | 180 | 4.0 | 10.0 | 0.01 | 0.36 | 0.07 | 87 | 1011.8 |
| 20260510160532 | 57 | 169 | 4.0 | 10.0 | 0.01 | 0.36 | 0.07 | 87 | 1011.7 |
| 20260510160031 | 57 | 205 | 4.0 | 9.0 | 0.01 | 0.36 | 0.07 | 88 | 1011.8 |
| 20260510155841 | 56 | 242 | 3.0 | 7.0 | 0.00 | 0.35 | 0.06 | 88 | 1011.9 |
| 20260510155733 | 56 | 186 | 2.0 | 7.0 | 0.00 | 0.35 | 0.06 | 89 | 1011.9 |
| 20260510154531 | 56 | 210 | 4.0 | 8.0 | 0.00 | 0.35 | 0.06 | 90 | 1011.9 |
| 20260510154516 | 55 | 181 | 3.0 | 9.0 | 0.00 | 0.35 | 0.06 | 90 | 1012.0 |
| 20260510153751 | 55 | 183 | 2.0 | 9.0 | 0.00 | 0.35 | 0.06 | 90 | 1012.1 |
| 20260510153031 | 54 | 183 | 3.0 | 8.0 | 0.00 | 0.35 | 0.06 | 90 | 1012.1 |
| 20260510152758 | 54 | 167 | 3.0 | 11.0 | 0.00 | 0.35 | 0.06 | 90 | 1012.2 |
| 20260510152033 | 54 | 210 | 4.0 | 11.0 | 0.00 | 0.35 | 0.06 | 90 | 1012.2 |
| 20260510151531 | 53 | 192 | 4.0 | 9.0 | 0.00 | 0.35 | 0.06 | 90 | 1012.2 |
| 20260510151032 | 54 | 150 | 5.0 | 10.0 | 0.00 | 0.35 | 0.06 | 89 | 1012.2 |
| 20260510150532 | 55 | 165 | 4.0 | 10.0 | 0.00 | 0.35 | 0.06 | 89 | 1012.3 |
| 20260510150031 | 55 | 150 | 3.0 | 9.0 | 0.00 | 0.35 | 0.06 | 90 | 1012.2 |
| 20260510145531 | 55 | 200 | 3.0 | 10.0 | 0.00 | 0.35 | 0.06 | 91 | 1012.1 |
| 20260510145031 | 55 | 165 | 4.0 | 10.0 | 0.00 | 0.35 | 0.06 | 90 | 1012.1 |
| 20260510144533 | 55 | 234 | 3.0 | 9.0 | 0.00 | 0.35 | 0.06 | 91 | 1012.1 |
| 20260510144031 | 55 | 155 | 4.0 | 9.0 | 0.00 | 0.35 | 0.06 | 91 | 1012.2 |
| 20260510143531 | 55 | 168 | 4.0 | 9.0 | 0.00 | 0.35 | 0.06 | 92 | 1012.2 |
| 20260510143027 | 54 | 140 | 4.0 | 9.0 | 0.00 | 0.35 | 0.06 | 92 | 1012.2 |
| 20260510142525 | 54 | 145 | 3.0 | 9.0 | 0.00 | 0.35 | 0.06 | 92 | 1012.3 |
| 20260510142025 | 54 | 182 | 2.0 | 7.0 | 0.00 | 0.35 | 0.06 | 93 | 1012.3 |
| 20260510141746 | 53 | 205 | 3.0 | 8.0 | 0.00 | 0.35 | 0.06 | 93 | 1012.2 |
| 20260510141025 | 53 | 164 | 4.0 | 9.0 | 0.00 | 0.35 | 0.06 | 94 | 1012.2 |
| 20260510140525 | 53 | 201 | 4.0 | 10.0 | 0.00 | 0.35 | 0.06 | 94 | 1012.0 |
| 20260510140259 | 53 | 167 | 4.0 | 10.0 | 0.00 | 0.35 | 0.06 | 94 | 1011.9 |
| 20260510135741 | 52 | 191 | 3.0 | 9.0 | 0.00 | 0.35 | 0.06 | 94 | 1012.1 |
| 20260510135613 | 52 | 181 | 3.0 | 9.0 | 0.00 | 0.35 | 0.06 | 94 | 1012.0 |
| 20260510134524 | 52 | 192 | 3.0 | 8.0 | 0.00 | 0.35 | 0.06 | 94 | 1012.1 |
| 20260510134024 | 52 | 170 | 2.0 | 8.0 | 0.00 | 0.35 | 0.06 | 94 | 1012.1 |
| 20260510133523 | 52 | 192 | 2.0 | 6.0 | 0.00 | 0.35 | 0.06 | 94 | 1012.1 |
| 20260510133021 | 52 | 191 | 2.0 | 6.0 | 0.00 | 0.35 | 0.06 | 95 | 1012.2 |
| 20260510132520 | 53 | 176 | 1.0 | 6.0 | 0.01 | 0.35 | 0.06 | 95 | 1012.2 |
| 20260510132236 | 53 | 204 | 1.0 | 5.0 | 0.01 | 0.35 | 0.06 | 95 | 1012.3 |
| 20260510131509 | 52 | 218 | 2.0 | 7.0 | 0.01 | 0.35 | 0.06 | 95 | 1012.2 |
| 20260510131003 | 52 | 235 | 1.0 | 7.0 | 0.01 | 0.35 | 0.06 | 95 | 1012.2 |
| 20260510130457 | 52 | 208 | 1.0 | 5.0 | 0.01 | 0.35 | 0.06 | 95 | 1012.2 |
| 20260510125952 | 52 | 242 | 2.0 | 6.0 | 0.01 | 0.35 | 0.06 | 96 | 1012.2 |
| 20260510125444 | 52 | 205 | 2.0 | 7.0 | 0.01 | 0.35 | 0.06 | 95 | 1012.2 |
| 20260510124939 | 52 | 253 | 1.0 | 7.0 | 0.01 | 0.35 | 0.06 | 96 | 1012.3 |
| 20260510124432 | 52 | 257 | 1.0 | 6.0 | 0.01 | 0.35 | 0.06 | 96 | 1012.3 |
| 20260510123926 | 51 | 240 | 1.0 | 6.0 | 0.01 | 0.35 | 0.06 | 96 | 1012.1 |
| 20260510123420 | 51 | 218 | 1.0 | 7.0 | 0.01 | 0.35 | 0.06 | 96 | 1012.2 |
| 20260510122914 | 51 | 220 | 2.0 | 6.0 | 0.01 | 0.35 | 0.06 | 96 | 1012.3 |
| 20260510122633 | 51 | 204 | 2.0 | 7.0 | 0.00 | 0.34 | 0.05 | 96 | 1012.3 |
| 20260510122128 | 51 | 238 | 3.0 | 8.0 | 0.00 | 0.34 | 0.05 | 96 | 1012.2 |
| 20260510121356 | 51 | 223 | 2.0 | 9.0 | 0.00 | 0.34 | 0.05 | 96 | 1012.0 |
| 20260510120850 | 51 | 252 | 2.0 | 8.0 | 0.00 | 0.34 | 0.05 | 96 | 1012.1 |
| 20260510120345 | 51 | 258 | 3.0 | 7.0 | 0.00 | 0.34 | 0.05 | 96 | 1012.1 |
| 20260510115840 | 51 | 200 | 3.0 | 9.0 | 0.00 | 0.34 | 0.05 | 96 | 1012.0 |
| 20260510115557 | 51 | 221 | 2.0 | 9.0 | 0.00 | 0.34 | 0.05 | 96 | 1011.9 |
| 20260510115048 | 51 | 202 | 1.0 | 8.0 | 0.00 | 0.34 | 0.05 | 96 | 1011.8 |
| 20260510114322 | 50 | 233 | 2.0 | 8.0 | 0.00 | 0.34 | 0.05 | 96 | 1011.5 |
| 20260510113821 | 50 | 190 | 2.0 | 9.0 | 0.00 | 0.34 | 0.05 | 96 | 1011.6 |
| 20260510113319 | 50 | 235 | 2.0 | 9.0 | 0.00 | 0.34 | 0.05 | 96 | 1011.6 |
| 20260510112821 | 50 | 238 | 1.0 | 8.0 | 0.00 | 0.34 | 0.05 | 96 | 1011.7 |
| 20260510112316 | 50 | 219 | 2.0 | 8.0 | 0.00 | 0.34 | 0.05 | 96 | 1011.7 |
| 20260510111815 | 49 | 223 | 1.0 | 4.0 | 0.00 | 0.34 | 0.05 | 96 | 1011.2 |
| 20260510111250 | 49 | 214 | 1.0 | 5.0 | 0.00 | 0.34 | 0.05 | 96 | 1011.1 |
| 20260510110956 | 49 | 213 | 2.0 | 6.0 | 0.00 | 0.34 | 0.05 | 96 | 1011.0 |
| 20260510110229 | 49 | 224 | 2.0 | 6.0 | 0.00 | 0.34 | 0.05 | 96 | 1011.1 |
| 20260510105725 | 49 | 218 | 2.0 | 7.0 | 0.00 | 0.34 | 0.05 | 96 | 1011.2 |
| 20260510105223 | 49 | 218 | 2.0 | 7.0 | 0.01 | 0.34 | 0.05 | 96 | 1011.2 |
| 20260510104715 | 49 | 226 | 1.0 | 6.0 | 0.01 | 0.34 | 0.05 | 96 | 1011.2 |
| 20260510104702 | 49 | 250 | 0.0 | 5.0 | 0.01 | 0.34 | 0.05 | 96 | 1011.2 |
| 20260510103157 | 49 | 199 | 0.0 | 4.0 | 0.01 | 0.34 | 0.05 | 96 | 1011.1 |
| 20260510102652 | 49 | 198 | 1.0 | 4.0 | 0.01 | 0.34 | 0.05 | 96 | 1011.3 |
| 20260510102145 | 49 | 207 | 1.0 | 6.0 | 0.01 | 0.34 | 0.05 | 96 | 1010.9 |
| 20260510101640 | 49 | 163 | 1.0 | 6.0 | 0.01 | 0.34 | 0.05 | 96 | 1010.6 |
| 20260510101134 | 49 | 161 | 1.0 | 5.0 | 0.01 | 0.34 | 0.05 | 96 | 1010.8 |
| 20260510100629 | 49 | 157 | 1.0 | 5.0 | 0.01 | 0.34 | 0.05 | 96 | 1011.2 |
| 20260510100122 | 49 | 155 | 1.0 | 5.0 | 0.01 | 0.34 | 0.05 | 96 | 1011.2 |
| 20260510095616 | 49 | 148 | 1.0 | 4.0 | 0.00 | 0.33 | 0.04 | 96 | 1010.8 |
| 20260510095330 | 49 | 206 | 0.0 | 4.0 | 0.00 | 0.33 | 0.04 | 96 | 1011.0 |
| 20260510094604 | 49 | 212 | 0.0 | 3.0 | 0.00 | 0.33 | 0.04 | 96 | 1011.0 |
| 20260510094057 | 49 | 212 | 0.0 | 3.0 | 0.00 | 0.33 | 0.04 | 96 | 1010.9 |
| 20260510093551 | 49 | 212 | 0.0 | 3.0 | 0.00 | 0.33 | 0.04 | 96 | 1010.9 |
| 20260510093048 | 49 | 212 | 0.0 | 2.0 | 0.00 | 0.33 | 0.04 | 96 | 1010.9 |
| 20260510092759 | 49 | 212 | 0.0 | 2.0 | 0.00 | 0.33 | 0.04 | 96 | 1010.9 |
| 20260510092033 | 49 | 216 | 0.0 | 3.0 | 0.00 | 0.33 | 0.04 | 96 | 1010.8 |
| 20260510091527 | 49 | 216 | 0.0 | 3.0 | 0.00 | 0.33 | 0.04 | 96 | 1010.8 |
| 20260510091022 | 49 | 216 | 1.0 | 5.0 | 0.00 | 0.33 | 0.04 | 96 | 1010.9 |
| 20260510090516 | 49 | 215 | 1.0 | 5.0 | 0.00 | 0.33 | 0.04 | 96 | 1011.0 |
| 20260510090009 | 49 | 224 | 0.0 | 4.0 | 0.00 | 0.33 | 0.04 | 96 | 1010.9 |
| 20260510085953 | 49 | 225 | 0.0 | 3.0 | 0.01 | 0.33 | 0.04 | 96 | 1010.8 |
| 20260510085224 | 49 | 225 | 0.0 | 4.0 | 0.01 | 0.33 | 0.04 | 96 | 1010.9 |
| 20260510084452 | 49 | 225 | 0.0 | 4.0 | 0.01 | 0.33 | 0.04 | 96 | 1010.7 |
| 20260510083945 | 49 | 224 | 0.0 | 0.0 | 0.01 | 0.33 | 0.04 | 96 | 1010.5 |
| 20260510083440 | 49 | 224 | 0.0 | 4.0 | 0.01 | 0.33 | 0.04 | 96 | 1010.4 |
| 20260510082934 | 49 | 224 | 1.0 | 4.0 | 0.01 | 0.33 | 0.04 | 96 | 1010.7 |
| 20260510082428 | 49 | 217 | 1.0 | 6.0 | 0.01 | 0.33 | 0.04 | 96 | 1010.9 |
| 20260510081922 | 49 | 216 | 1.0 | 6.0 | 0.01 | 0.33 | 0.04 | 96 | 1010.9 |
| 20260510081415 | 49 | 199 | 0.0 | 4.0 | 0.01 | 0.33 | 0.04 | 95 | 1010.9 |
| 20260510080909 | 49 | 180 | 0.0 | 3.0 | 0.01 | 0.33 | 0.04 | 95 | 1010.7 |
| 20260510080403 | 49 | 191 | 0.0 | 1.0 | 0.01 | 0.33 | 0.04 | 96 | 1010.7 |
| 20260510075859 | 49 | 191 | 0.0 | 2.0 | 0.00 | 0.32 | 0.04 | 96 | 1010.8 |
| 20260510075616 | 49 | 190 | 0.0 | 5.0 | 0.00 | 0.32 | 0.03 | 95 | 1010.9 |
| 20260510074845 | 49 | 191 | 0.0 | 5.0 | 0.00 | 0.32 | 0.03 | 95 | 1010.7 |
| 20260510074339 | 49 | 184 | 0.0 | 2.0 | 0.01 | 0.32 | 0.03 | 95 | 1010.8 |
| 20260510073834 | 49 | 183 | 0.0 | 3.0 | 0.01 | 0.32 | 0.03 | 95 | 1010.4 |
| 20260510073329 | 49 | 183 | 0.0 | 3.0 | 0.01 | 0.32 | 0.03 | 95 | 1010.4 |
| 20260510072822 | 49 | 184 | 1.0 | 5.0 | 0.01 | 0.32 | 0.03 | 95 | 1010.5 |
| 20260510072317 | 49 | 183 | 1.0 | 5.0 | 0.01 | 0.32 | 0.03 | 95 | 1010.5 |
| 20260510071810 | 49 | 190 | 0.0 | 4.0 | 0.01 | 0.32 | 0.03 | 95 | 1010.5 |
| 20260510071305 | 49 | 190 | 0.0 | 4.0 | 0.01 | 0.32 | 0.03 | 95 | 1010.6 |
| 20260510070758 | 49 | 190 | 0.0 | 3.0 | 0.01 | 0.32 | 0.03 | 95 | 1010.9 |
| 20260510070253 | 49 | 190 | 0.0 | 2.0 | 0.01 | 0.32 | 0.03 | 95 | 1010.9 |
| 20260510070007 | 49 | 190 | 0.0 | 2.0 | 0.01 | 0.32 | 0.03 | 95 | 1010.9 |
| 20260510065239 | 49 | 190 | 0.0 | 2.0 | 0.01 | 0.32 | 0.03 | 95 | 1011.1 |
| 20260510064733 | 49 | 190 | 0.0 | 4.0 | 0.00 | 0.31 | 0.02 | 95 | 1011.2 |
| 20260510064227 | 49 | 190 | 0.0 | 4.0 | 0.00 | 0.31 | 0.02 | 95 | 1011.2 |
| 20260510063721 | 49 | 182 | 0.0 | 3.0 | 0.01 | 0.31 | 0.02 | 95 | 1011.2 |
| 20260510063215 | 49 | 182 | 1.0 | 4.0 | 0.01 | 0.31 | 0.02 | 95 | 1011.3 |
| 20260510062709 | 49 | 181 | 1.0 | 5.0 | 0.01 | 0.31 | 0.02 | 95 | 1011.3 |
| 20260510062203 | 49 | 180 | 1.0 | 5.0 | 0.01 | 0.31 | 0.02 | 95 | 1011.3 |
| 20260510061913 | 49 | 182 | 0.0 | 3.0 | 0.01 | 0.31 | 0.02 | 95 | 1011.4 |
| 20260510061153 | 49 | 182 | 0.0 | 1.0 | 0.01 | 0.31 | 0.02 | 95 | 1011.4 |
| 20260510060646 | 49 | 182 | 0.0 | 0.0 | 0.01 | 0.31 | 0.02 | 95 | 1011.4 |
| 20260510060140 | 49 | 182 | 0.0 | 1.0 | 0.01 | 0.31 | 0.02 | 95 | 1011.4 |
| 20260510055633 | 49 | 182 | 0.0 | 1.0 | 0.01 | 0.31 | 0.02 | 95 | 1011.4 |
| 20260510055127 | 49 | 182 | 1.0 | 5.0 | 0.01 | 0.31 | 0.02 | 95 | 1011.5 |
| 20260510054621 | 49 | 182 | 1.0 | 5.0 | 0.01 | 0.31 | 0.02 | 95 | 1011.5 |
| 20260510054115 | 49 | 177 | 1.0 | 5.0 | 0.01 | 0.31 | 0.02 | 95 | 1011.7 |
| 20260510053609 | 49 | 173 | 2.0 | 7.0 | 0.00 | 0.30 | 0.01 | 95 | 1011.8 |
| 20260510053103 | 49 | 153 | 2.0 | 7.0 | 0.00 | 0.30 | 0.01 | 95 | 1011.8 |
| 20260510052559 | 49 | 175 | 1.0 | 9.0 | 0.00 | 0.30 | 0.01 | 95 | 1011.9 |
| 20260510052052 | 49 | 175 | 2.0 | 9.0 | 0.01 | 0.30 | 0.01 | 95 | 1011.9 |
| 20260510051546 | 49 | 150 | 3.0 | 7.0 | 0.01 | 0.30 | 0.01 | 95 | 1011.8 |
| 20260510051040 | 49 | 161 | 3.0 | 8.0 | 0.01 | 0.30 | 0.01 | 95 | 1011.8 |
| 20260510050539 | 49 | 179 | 3.0 | 8.0 | 0.01 | 0.30 | 0.01 | 95 | 1011.7 |
| 20260510050039 | 50 | 177 | 3.0 | 7.0 | 0.01 | 0.30 | 0.01 | 96 | 1011.6 |
| 20260510045538 | 49 | 161 | 3.0 | 8.0 | 0.01 | 0.30 | 0.01 | 96 | 1011.5 |
| 20260510045037 | 49 | 182 | 3.0 | 8.0 | 0.01 | 0.30 | 0.01 | 96 | 1011.6 |
| 20260510044537 | 49 | 186 | 3.0 | 11.0 | 0.01 | 0.30 | 0.01 | 95 | 1011.7 |
| 20260510044038 | 49 | 182 | 3.0 | 11.0 | 0.01 | 0.30 | 0.01 | 95 | 1011.9 |
| 20260510043536 | 50 | 184 | 2.0 | 8.0 | 0.01 | 0.30 | 0.01 | 95 | 1011.9 |
| 20260510043036 | 50 | 180 | 3.0 | 8.0 | 0.01 | 0.30 | 0.01 | 95 | 1011.9 |
| 20260510042536 | 50 | 194 | 2.0 | 8.0 | 0.01 | 0.30 | 0.01 | 96 | 1012.0 |
| 20260510042306 | 49 | 188 | 1.0 | 4.0 | 0.01 | 0.29 | 0.00 | 96 | 1012.1 |
| 20260510041536 | 49 | 178 | 1.0 | 6.0 | 0.01 | 0.29 | 0.00 | 96 | 1012.2 |
| 20260510041038 | 49 | 176 | 1.0 | 7.0 | 0.01 | 0.29 | 0.00 | 96 | 1012.1 |
| 20260510040538 | 49 | 146 | 1.0 | 7.0 | 0.01 | 0.29 | 0.00 | 96 | 1012.0 |
| 20260510040256 | 49 | 187 | 0.0 | 3.0 | 0.01 | 0.29 | 0.00 | 95 | 1012.1 |
| 20260510035538 | 49 | 188 | 1.0 | 5.0 | 0.01 | 0.29 | 0.29 | 96 | 1012.2 |
| 20260510035257 | 49 | 188 | 1.0 | 5.0 | 0.01 | 0.29 | 0.29 | 96 | 1012.2 |
| 20260510034536 | 49 | 188 | 0.0 | 4.0 | 0.01 | 0.29 | 0.29 | 96 | 1012.2 |
| 20260510034301 | 48 | 188 | 0.0 | 4.0 | 0.01 | 0.29 | 0.29 | 96 | 1012.3 |
| 20260510033538 | 48 | 34 | 0.0 | 0.0 | 0.01 | 0.29 | 0.29 | 95 | 1012.3 |
| 20260510033036 | 48 | 34 | 0.0 | 0.0 | 0.01 | 0.29 | 0.29 | 95 | 1012.4 |
| 20260510032536 | 48 | 33 | 0.0 | 0.0 | 0.01 | 0.29 | 0.29 | 95 | 1012.4 |
| 20260510032036 | 48 | 33 | 0.0 | 0.0 | 0.01 | 0.28 | 0.28 | 95 | 1012.5 |
| 20260510031536 | 48 | 34 | 0.0 | 0.0 | 0.01 | 0.28 | 0.28 | 95 | 1012.6 |
| 20260510031036 | 48 | 34 | 0.0 | 0.0 | 0.01 | 0.28 | 0.28 | 95 | 1012.5 |
| 20260510030758 | 48 | 34 | 0.0 | 0.0 | 0.01 | 0.28 | 0.28 | 95 | 1012.5 |
| 20260510030036 | 48 | 33 | 0.0 | 0.0 | 0.01 | 0.28 | 0.28 | 95 | 1012.5 |
| 20260510025532 | 47 | 33 | 0.0 | 0.0 | 0.01 | 0.28 | 0.28 | 95 | 1012.6 |
| 20260510025032 | 47 | 33 | 0.0 | 0.0 | 0.01 | 0.28 | 0.28 | 95 | 1012.6 |
| 20260510024749 | 47 | 34 | 0.0 | 0.0 | 0.01 | 0.28 | 0.28 | 95 | 1012.6 |
| 20260510024032 | 47 | 33 | 0.0 | 0.0 | 0.01 | 0.28 | 0.28 | 95 | 1012.6 |
| 20260510023532 | 47 | 33 | 0.0 | 0.0 | 0.01 | 0.28 | 0.28 | 95 | 1012.5 |
| 20260510023032 | 47 | 33 | 0.0 | 0.0 | 0.02 | 0.28 | 0.28 | 95 | 1012.5 |
| 20260510022802 | 47 | 33 | 0.0 | 0.0 | 0.02 | 0.28 | 0.28 | 95 | 1012.5 |
| 20260510022033 | 47 | 34 | 0.0 | 0.0 | 0.01 | 0.27 | 0.27 | 95 | 1012.5 |
| 20260510021751 | 47 | 33 | 0.0 | 0.0 | 0.01 | 0.27 | 0.27 | 95 | 1012.4 |
| 20260510021034 | 47 | 33 | 0.0 | 0.0 | 0.01 | 0.27 | 0.27 | 95 | 1012.5 |
| 20260510020528 | 47 | 33 | 0.0 | 0.0 | 0.01 | 0.27 | 0.27 | 95 | 1012.7 |
| 20260510020032 | 47 | 33 | 0.0 | 0.0 | 0.02 | 0.27 | 0.27 | 95 | 1012.7 |
| 20260510015528 | 47 | 34 | 0.0 | 0.0 | 0.02 | 0.27 | 0.27 | 95 | 1012.8 |
| 20260510015034 | 47 | 34 | 0.0 | 0.0 | 0.02 | 0.27 | 0.27 | 95 | 1012.7 |
| 20260510014749 | 47 | 33 | 0.0 | 1.0 | 0.02 | 0.27 | 0.27 | 95 | 1012.6 |
| 20260510014029 | 47 | 33 | 0.0 | 1.0 | 0.02 | 0.27 | 0.27 | 95 | 1012.7 |
| 20260510013528 | 47 | 34 | 0.0 | 0.0 | 0.02 | 0.27 | 0.27 | 95 | 1012.7 |
| 20260510013031 | 47 | 34 | 0.0 | 0.0 | 0.02 | 0.26 | 0.26 | 95 | 1012.6 |
| 20260510012525 | 47 | 34 | 0.0 | 0.0 | 0.02 | 0.26 | 0.26 | 95 | 1012.4 |
| 20260510012034 | 47 | 34 | 0.0 | 0.0 | 0.02 | 0.26 | 0.26 | 95 | 1012.4 |
| 20260510011524 | 47 | 34 | 0.0 | 0.0 | 0.03 | 0.26 | 0.26 | 95 | 1012.4 |
| 20260510011032 | 47 | 34 | 0.0 | 0.0 | 0.03 | 0.26 | 0.26 | 95 | 1012.4 |
| 20260510010524 | 47 | 34 | 0.0 | 3.0 | 0.03 | 0.26 | 0.26 | 95 | 1012.4 |
| 20260510010029 | 47 | 34 | 0.0 | 3.0 | 0.02 | 0.25 | 0.26 | 95 | 1012.4 |
| 20260510005524 | 47 | 34 | 0.0 | 0.0 | 0.03 | 0.25 | 0.25 | 95 | 1012.4 |
| 20260510005026 | 47 | 34 | 0.0 | 0.0 | 0.03 | 0.25 | 0.25 | 95 | 1012.5 |
| 20260510004524 | 47 | 34 | 0.0 | 0.0 | 0.03 | 0.25 | 0.25 | 95 | 1012.4 |
| 20260510004035 | 47 | 34 | 0.0 | 0.0 | 0.03 | 0.25 | 0.25 | 95 | 1012.3 |
| 20260510003520 | 47 | 34 | 0.0 | 0.0 | 0.02 | 0.24 | 0.24 | 95 | 1012.2 |
| 20260510003247 | 46 | 34 | 0.0 | 0.0 | 0.02 | 0.24 | 0.24 | 95 | 1012.4 |
| 20260510002518 | 46 | 33 | 0.0 | 0.0 | 0.03 | 0.24 | 0.24 | 95 | 1012.4 |
| 20260510002033 | 46 | 33 | 0.0 | 1.0 | 0.02 | 0.23 | 0.23 | 95 | 1012.3 |
| 20260510001235 | 46 | 33 | 0.0 | 0.0 | 0.02 | 0.23 | 0.23 | 94 | 1012.5 |
| 20260510000442 | 46 | 33 | 0.0 | 2.0 | 0.02 | 0.23 | 0.23 | 94 | 1012.5 |
| 20260509235941 | 46 | 33 | 0.0 | 4.0 | 0.02 | 0.23 | 0.23 | 94 | 1012.4 |
| 20260509235440 | 46 | 33 | 0.0 | 1.0 | 0.02 | 0.22 | 0.23 | 94 | 1012.4 |
| 20260509234932 | 46 | 64 | 0.0 | 1.0 | 0.02 | 0.22 | 0.22 | 94 | 1012.4 |